Home > Weather > Daly City > Past weeks

Flag for U.S.A. Weather for the Past 2 Weeks in Daly City, California, U.S.A.

Now
56 °F

Passing clouds.


Feels Like: 52 °F
Forecast: 51 / 62 °F
Wind: 14 mph from Northwest

Location: San Francisco International Airport

Current Time: Feb 11, 2016 at 10:27:57 PM

Latest Report: Feb 11, 2016 at 9:56 PM


Visibility: 10 mi

Pressure: 30.18 "Hg

Humidity: 81%

Dew point: 50 °F

Location of Daly CityLocation

Historic Weather in Daly City — Graph

°F

Daly City Temperature Yesterday

Maximum temperature yesterday: 66 °F (at 4:56 PM)
Minimum temperature yesterday: 50 °F (at 4:56 AM)
Average temperature yesterday: 58 °F

High & Low Weather Summary for the Past Weeks

 TemperatureHumidityPressure
High71 °F (Feb 8, 1:56 PM)100% (Feb 2, 8:00 AM)30.47 "Hg (Feb 2, 8:00 AM)
Low43 °F (Feb 3, 3:56 AM)36% (Feb 8, 1:56 PM)29.78 "Hg (Jan 31, 1:56 PM)
Average54 °F72%30.22 "Hg
* Reported Jan 27 8:56 PM — Feb 11 8:56 PM, Daly City, Weather by CustomWeather, © 2016

Note: Actual official high and low records may vary slightly from our data, if they occured in-between our weather recording intervals... More about our weather records

Advertising

Daly City Weather History for the Previous 24 Hours

 ConditionsComfort  
Time TempWeatherWind HumidityBarometerVisibility
8:56 PM
Thu, Feb 11
56 °FPassing clouds.14 mph81%30.17 "Hg10 mi
7:56 PM58 °FPassing clouds.18 mph78%30.16 "Hg10 mi
6:56 PM59 °FPassing clouds.9 mph75%30.15 "Hg10 mi
5:56 PM61 °FPassing clouds.14 mph62%30.14 "Hg10 mi
4:56 PM63 °FPartly sunny.9 mph63%30.13 "Hg10 mi
3:56 PM65 °FPartly sunny.No wind63%30.12 "Hg10 mi
2:56 PM60 °FPartly sunny.9 mph80%30.10 "Hg10 mi
12:56 PM60 °FPartly sunny.3 mph78%30.12 "Hg10 mi
11:56 AM59 °FPartly sunny.7 mph78%30.15 "Hg10 mi
10:56 AM58 °FPartly sunny.3 mph84%30.17 "Hg10 mi
9:56 AM58 °FPartly sunny.5 mph84%30.16 "Hg9 mi
8:56 AM56 °FPartly sunny.No wind87%30.15 "Hg8 mi
7:56 AM56 °FPartly sunny.3 mph87%30.15 "Hg7 mi
6:56 AM55 °FPassing clouds.7 mph93%30.14 "Hg8 mi
5:56 AM51 °FPassing clouds.No wind83%30.13 "Hg10 mi
4:56 AM53 °FPassing clouds.No wind83%30.12 "Hg10 mi
3:56 AM52 °FPassing clouds.No wind83%30.13 "Hg10 mi
2:56 AM53 °FPassing clouds.3 mph86%30.13 "Hg10 mi
1:56 AM56 °FPassing clouds.No wind87%30.14 "Hg10 mi
12:56 AM55 °FPassing clouds.3 mph80%30.14 "Hg10 mi
11:56 PM
Wed, Feb 10
56 °FPassing clouds.No wind81%30.15 "Hg10 mi
10:56 PM58 °FPassing clouds.No wind78%30.16 "Hg10 mi
Weather by CustomWeather, © 2016

See weather overviewHow to use our weather pages